FW8899 Weather Reports


time (UTC)temp
F
wind
direction
speed
knots
gust
knots
rain 1hr
in
rain 24hr
in
rain mn
in
humidity
%
barometer
mb
20260510020638 68 107 0.0 0.0 0.00 0.27 0.27 96 1014.8
20260510020133 68 106 0.0 0.0 0.00 0.27 0.27 96 1014.8
20260510015630 68 114 1.7 3.5 0.00 0.27 0.27 96 1014.7
20260510015126 68 109 0.0 0.0 0.00 0.27 0.27 96 1014.6
20260510014621 68 106 0.0 0.0 0.00 0.27 0.27 96 1014.5
20260510014120 69 105 0.0 0.0 0.00 0.27 0.27 95 1014.6
20260510013619 69 106 0.0 1.7 0.00 0.27 0.27 95 1014.4
20260510013115 69 100 1.7 3.5 0.00 0.27 0.27 95 1014.5
20260510012614 69 93 0.9 3.5 0.00 0.27 0.27 94 1014.1
20260510012111 69 104 0.0 1.7 0.00 0.27 0.27 94 1014.2
20260510011611 69 107 0.9 1.7 0.00 0.27 0.27 94 1014.0
20260510011107 69 110 2.6 5.2 0.00 0.27 0.27 94 1014.5
20260510010603 69 120 2.6 3.5 0.00 0.27 0.27 93 1014.4
20260510010101 70 111 1.7 1.7 0.00 0.27 0.27 93 1014.3
20260510005556 70 111 0.9 3.5 0.00 0.27 0.27 93 1014.7
20260510005054 70 106 0.0 3.5 0.00 0.27 0.27 93 1014.1
20260510004552 70 111 0.9 3.5 0.00 0.27 0.27 93 1014.2
20260510004049 70 109 3.5 6.1 0.00 0.27 0.27 93 1014.4
20260510003546 71 119 0.0 1.7 0.00 0.27 0.27 94 1014.4
20260510003041 71 118 0.9 1.7 0.00 0.27 0.27 93 1014.2
20260510002537 71 114 0.9 6.1 0.00 0.27 0.27 93 1014.1
20260510002034 71 104 0.9 3.5 0.00 0.27 0.27 93 1014.2
20260510001531 71 109 3.5 9.6 0.00 0.27 0.27 94 1013.7
20260510001030 71 109 1.7 3.5 0.00 0.27 0.27 94 1013.8
20260510000524 71 107 0.9 1.7 0.00 0.27 0.27 94 1013.9
20260510000021 71 76 2.6 6.1 0.00 0.27 0.27 93 1013.9
20260509235518 71 116 2.6 5.2 0.00 0.27 0.27 93 1013.8
20260509235015 71 95 1.7 7.8 0.00 0.27 0.27 93 1013.8
20260509234511 72 123 1.7 3.5 0.00 0.27 0.27 93 1013.9
20260509234009 72 138 3.5 5.2 0.00 0.27 0.27 93 1013.6
20260509233507 72 107 0.9 1.7 0.00 0.27 0.27 93 1013.6
20260509233003 72 115 3.5 5.2 0.00 0.27 0.27 92 1013.7
20260509232501 72 146 2.6 3.5 0.00 0.27 0.27 91 1013.6
20260509231956 72 134 1.7 9.6 0.00 0.27 0.27 92 1013.3
20260509231453 72 111 0.9 6.1 0.00 0.27 0.27 93 1013.8
20260509230951 72 159 2.6 5.2 0.00 0.27 0.27 93 1013.7
20260509230448 72 132 0.9 3.5 0.00 0.27 0.27 93 1013.7
20260509225944 72 109 2.6 5.2 0.00 0.27 0.27 93 1013.7
20260509225440 71 146 2.6 5.2 0.00 0.27 0.27 94 1013.6
20260509224936 71 88 0.0 1.7 0.00 0.27 0.27 95 1013.4
20260509224432 71 105 1.7 5.2 0.00 0.27 0.27 95 1013.4
20260509223929 72 117 8.7 11.3 0.00 0.27 0.27 95 1013.5
20260509223425 72 115 7.0 7.8 0.00 0.27 0.27 94 1013.5
20260509222923 72 110 0.9 6.1 0.00 0.27 0.27 94 1013.6
20260509222418 72 96 1.7 5.2 0.00 0.27 0.27 94 1013.4
20260509221914 73 105 5.2 16.5 0.00 0.27 0.27 93 1013.2
20260509221411 73 111 0.9 3.5 0.00 0.27 0.27 93 1013.1
20260509220907 74 90 1.7 5.2 0.00 0.27 0.27 92 1013.1
20260509220403 75 113 2.6 3.5 0.00 0.27 0.27 91 1013.1
20260509215859 75 130 1.7 5.2 0.00 0.27 0.27 90 1013.1
20260509215355 75 104 0.9 1.7 0.00 0.27 0.27 91 1013.0
20260509214852 75 128 4.3 6.1 0.00 0.27 0.27 89 1012.9
20260509214349 77 101 6.1 9.6 0.00 0.27 0.27 87 1012.7
20260509213847 76 117 0.0 5.2 0.00 0.27 0.27 88 1012.9
20260509213342 76 103 4.3 5.2 0.00 0.27 0.27 88 1013.1
20260509212840 76 99 0.9 5.2 0.00 0.27 0.27 89 1012.9
20260509212337 75 94 0.9 1.7 0.00 0.27 0.27 90 1013.0
20260509211833 75 121 0.9 3.5 0.00 0.27 0.27 90 1013.2
20260509211329 75 108 0.9 1.7 0.00 0.27 0.27 90 1013.1
20260509210825 75 111 1.7 3.5 0.00 0.27 0.27 90 1013.3
20260509210323 75 109 0.0 1.7 0.00 0.27 0.27 90 1013.2
20260509205823 75 112 0.0 1.7 0.00 0.27 0.27 90 1013.0
20260509205318 75 111 1.7 3.5 0.00 0.27 0.27 89 1013.4
20260509204814 75 95 0.0 1.7 0.00 0.27 0.27 89 1013.4
20260509204310 75 92 2.6 3.5 0.00 0.27 0.27 89 1013.4
20260509203806 75 79 2.6 3.5 0.00 0.27 0.27 89 1013.4
20260509203304 75 117 1.7 6.1 0.00 0.27 0.27 88 1013.4
20260509202800 75 116 0.0 1.7 0.00 0.27 0.27 90 1013.3
20260509202256 74 73 1.7 3.5 0.00 0.27 0.27 91 1013.3
20260509201755 75 103 0.0 0.0 0.00 0.27 0.27 92 1013.5
20260509201252 74 101 0.9 1.7 0.00 0.27 0.27 93 1013.6
20260509200749 74 72 3.5 5.2 0.00 0.27 0.27 92 1013.5
20260509200244 73 73 0.9 1.7 0.00 0.27 0.27 92 1013.6
20260509195741 74 102 0.0 3.5 0.00 0.27 0.27 92 1013.7
20260509195236 74 74 4.3 6.1 0.00 0.27 0.27 92 1013.7
20260509194731 74 88 1.7 3.5 0.00 0.27 0.27 92 1013.7
20260509194226 74 92 2.6 5.2 0.00 0.27 0.27 93 1013.6
20260509193724 74 95 0.0 1.7 0.00 0.27 0.27 94 1013.8
20260509193218 73 112 0.9 1.7 0.00 0.27 0.27 93 1013.9
20260509192714 73 127 0.9 1.7 0.00 0.27 0.27 93 1014.0
20260509192209 73 101 0.0 1.7 0.00 0.27 0.27 93 1014.0
20260509191705 73 108 0.9 3.5 0.00 0.27 0.27 93 1014.1
20260509191201 73 110 0.0 0.0 0.00 0.27 0.27 94 1013.9
20260509190658 73 106 0.0 0.0 0.00 0.27 0.27 94 1013.9
20260509190155 73 103 0.0 0.0 0.00 0.27 0.27 94 1013.9
20260509185653 72 109 0.0 1.7 0.00 0.27 0.27 94 1014.2
20260509185148 73 113 0.0 0.0 0.00 0.27 0.27 95 1014.3
20260509184646 72 97 1.7 1.7 0.00 0.27 0.27 95 1014.1
20260509184143 72 109 0.0 1.7 0.00 0.27 0.27 94 1014.2
20260509183639 72 109 0.0 3.5 0.00 0.27 0.27 94 1014.1
20260509183134 72 102 0.0 1.7 0.00 0.27 0.27 95 1014.1
20260509182630 72 109 0.0 1.7 0.00 0.27 0.27 96 1014.3
20260509182128 72 106 0.9 3.5 0.00 0.27 0.27 96 1014.4
20260509181626 72 75 1.7 3.5 0.00 0.27 0.27 96 1014.4
20260509181123 71 116 0.0 1.7 0.00 0.27 0.27 96 1014.4
20260509180620 71 113 0.9 3.5 0.00 0.27 0.27 96 1014.4
20260509180116 71 111 0.0 1.7 0.00 0.27 0.27 96 1014.4
20260509175611 71 103 0.0 0.0 0.00 0.27 0.27 96 1014.6
20260509175109 71 97 0.9 1.7 0.00 0.27 0.27 96 1014.8
20260509174605 71 109 0.0 0.0 0.00 0.27 0.27 96 1014.7
20260509174100 70 105 0.0 0.0 0.00 0.27 0.27 96 1015.0
20260509173555 70 116 0.9 1.7 0.00 0.27 0.27 96 1014.8
20260509173052 71 110 0.9 1.7 0.00 0.27 0.27 96 1014.9
20260509172549 70 112 0.0 0.0 0.00 0.27 0.27 96 1015.0
20260509172044 70 110 0.0 0.0 0.00 0.27 0.27 96 1015.0
20260509171541 70 115 0.0 1.7 0.00 0.27 0.27 96 1015.0
20260509171037 70 108 0.0 0.0 0.00 0.27 0.27 96 1014.9
20260509170533 70 114 0.0 1.7 0.00 0.27 0.27 96 1014.9
20260509170029 70 116 0.0 1.7 0.00 0.27 0.27 96 1015.0
20260509165528 70 114 0.0 1.7 0.00 0.27 0.27 96 1015.0
20260509165023 70 107 0.0 1.7 0.00 0.27 0.27 96 1015.0
20260509164520 70 134 1.7 1.7 0.00 0.27 0.27 96 1014.9
20260509164015 70 106 0.0 0.0 0.00 0.27 0.27 96 1015.0
20260509163513 69 113 0.0 1.7 0.00 0.27 0.27 96 1014.9
20260509163008 70 112 0.0 1.7 0.00 0.27 0.27 96 1014.7
20260509162506 69 116 0.0 1.7 0.00 0.27 0.27 96 1014.7
20260509162001 69 105 0.0 0.0 0.00 0.27 0.27 96 1014.6
20260509161458 69 107 0.0 1.7 0.00 0.27 0.27 96 1014.7
20260509160953 69 105 0.9 1.7 0.00 0.27 0.27 96 1014.6
20260509160449 69 111 0.0 0.0 0.00 0.27 0.27 96 1014.8
20260509155944 69 104 0.0 1.7 0.00 0.27 0.27 96 1014.7
20260509155441 69 85 0.0 3.5 0.00 0.27 0.27 96 1014.6
20260509154938 69 109 0.0 1.7 0.00 0.27 0.27 96 1014.5
20260509154434 69 117 0.9 1.7 0.00 0.27 0.27 96 1014.4
20260509153932 69 107 0.0 0.0 0.00 0.27 0.27 96 1014.4
20260509153428 69 110 0.0 1.7 0.00 0.27 0.27 96 1014.4
20260509152925 68 101 0.9 1.7 0.00 0.27 0.27 96 1014.5
20260509152421 68 111 0.9 1.7 0.00 0.27 0.27 96 1014.2
20260509151918 68 107 0.0 1.7 0.00 0.27 0.27 96 1014.4
20260509151414 68 100 0.0 0.0 0.00 0.27 0.27 96 1014.4
20260509150913 68 104 0.0 1.7 0.00 0.27 0.27 96 1014.8
20260509150410 68 95 1.7 1.7 0.00 0.27 0.27 96 1014.5
20260509145908 68 113 0.0 1.7 0.00 0.27 0.27 96 1014.6
20260509145407 68 109 0.0 0.0 0.00 0.27 0.27 96 1014.5
20260509144903 68 103 0.0 1.7 0.00 0.27 0.27 96 1014.4
20260509144400 68 87 1.7 1.7 0.00 0.27 0.27 96 1014.7
20260509143857 67 106 0.0 1.7 0.00 0.27 0.27 96 1014.6
20260509143355 66 128 1.7 3.5 0.00 0.27 0.27 96 1014.7
20260509142851 66 108 0.0 0.0 0.00 0.27 0.27 96 1014.7
20260509142348 66 112 0.9 1.7 0.00 0.27 0.27 96 1014.6
20260509141843 66 103 0.0 1.7 0.00 0.27 0.27 96 1014.6
20260509141341 66 113 0.0 1.7 0.00 0.27 0.27 96 1014.7
20260509140837 66 107 0.0 0.0 0.00 0.27 0.27 96 1014.6
20260509140334 66 104 0.0 1.7 0.00 0.27 0.27 96 1014.8
20260509135832 66 112 0.0 1.7 0.00 0.27 0.27 96 1014.6
20260509135329 65 118 1.7 1.7 0.00 0.27 0.27 96 1015.0
20260509134826 65 109 0.0 1.7 0.00 0.27 0.27 96 1014.9
20260509134323 65 120 1.7 3.5 0.00 0.27 0.27 96 1014.9
20260509133820 65 173 2.6 3.5 0.00 0.27 0.27 96 1014.6
20260509133317 65 120 0.9 3.5 0.00 0.27 0.27 96 1014.9
20260509132816 65 110 0.0 1.7 0.00 0.27 0.27 96 1014.8
20260509132314 65 106 0.0 1.7 0.00 0.27 0.27 96 1014.6
20260509131810 64 113 0.0 3.5 0.00 0.27 0.27 96 1014.6
20260509131307 64 108 0.0 0.0 0.00 0.27 0.27 96 1014.8
20260509130803 64 100 0.0 1.7 0.00 0.27 0.27 96 1014.6
20260509130259 64 103 0.0 1.7 0.00 0.27 0.27 96 1014.7
20260509125756 64 91 1.7 1.7 0.00 0.27 0.27 96 1014.4
20260509125253 64 105 0.0 0.0 0.00 0.27 0.27 96 1014.7
20260509124749 64 110 0.0 1.7 0.00 0.27 0.27 96 1014.5
20260509124245 64 106 0.0 1.7 0.00 0.27 0.27 96 1014.4
20260509123744 63 108 0.0 0.0 0.00 0.27 0.27 96 1014.4
20260509123241 63 112 0.0 0.0 0.00 0.27 0.27 96 1014.2
20260509122736 63 110 0.0 1.7 0.00 0.27 0.27 96 1014.0
20260509122233 63 113 0.0 0.0 0.00 0.27 0.27 96 1014.3
20260509121730 63 100 0.9 1.7 0.00 0.27 0.27 96 1014.5
20260509121228 63 108 0.0 1.7 0.00 0.27 0.27 96 1014.4
20260509120726 63 110 0.0 1.7 0.00 0.27 0.27 96 1014.3
20260509120223 62 107 0.0 0.0 0.00 0.27 0.27 96 1014.5
20260509115721 62 109 0.0 0.0 0.00 0.27 0.27 96 1014.3
20260509115218 62 105 0.0 1.7 0.00 0.27 0.27 96 1014.2
20260509114717 62 114 0.0 1.7 0.00 0.27 0.27 96 1014.1
20260509114215 62 110 0.0 0.0 0.00 0.27 0.27 96 1014.4
20260509113713 62 112 0.0 0.0 0.00 0.27 0.27 96 1014.1
20260509113210 62 96 0.0 0.0 0.00 0.27 0.27 96 1014.1
20260509112707 62 109 0.0 0.0 0.00 0.27 0.27 96 1013.9
20260509112203 62 106 0.0 0.0 0.00 0.27 0.27 96 1013.9
20260509111700 62 109 0.0 0.0 0.00 0.27 0.27 96 1013.7
20260509111157 62 108 0.0 0.0 0.00 0.27 0.27 96 1013.7
20260509110655 62 107 0.0 0.0 0.00 0.27 0.27 96 1013.5
20260509110151 62 104 0.0 0.0 0.00 0.27 0.27 96 1013.6
20260509105649 62 103 0.0 0.0 0.00 0.27 0.27 96 1013.7
20260509105146 63 109 0.0 0.0 0.00 0.27 0.27 96 1013.6
20260509104643 63 111 0.0 0.0 0.00 0.27 0.27 96 1013.6
20260509104140 63 112 0.0 0.0 0.00 0.27 0.27 96 1013.5
20260509103638 62 108 0.0 0.0 0.00 0.27 0.27 96 1013.5
20260509082212 65 328 11.3 18.2 0.00 0.27 0.27 96 1014.2
20260509081709 65 328 11.3 18.2 0.00 0.27 0.27 96 1014.2
20260509081206 65 99 0.9 3.5 0.00 0.27 0.27 96 1011.6
20260509080704 65 119 0.9 3.5 0.00 0.27 0.27 96 1010.9
20260509080202 65 127 7.0 7.8 0.00 0.27 0.27 96 1010.7
20260509075700 65 103 0.9 6.1 0.05 0.27 0.27 96 1010.9
20260509075157 66 349 5.2 13.0 0.05 0.27 0.27 96 1011.4
20260509074654 66 110 4.3 7.8 0.00 0.26 0.26 96 1012.9
20260509074150 67 118 3.5 5.2 0.00 0.26 0.26 96 1013.4
20260509073647 67 101 7.0 9.6 0.00 0.26 0.26 96 1013.9
20260509073144 67 174 5.2 7.8 0.07 0.26 0.26 96 1013.6
20260509072641 67 122 6.1 6.1 0.07 0.26 0.26 96 1013.1
20260509072137 67 110 1.7 5.2 0.00 0.25 0.25 96 1013.2
20260509071634 67 125 0.9 5.2 0.09 0.25 0.25 96 1013.2
20260509071131 67 112 0.9 1.7 0.28 0.25 0.25 96 1013.3
20260509070628 67 110 0.9 1.7 0.40 0.24 0.24 96 1013.2
20260509070124 67 104 0.9 3.5 0.45 0.20 0.20 96 1013.9
20260509065620 67 106 0.0 5.2 0.45 0.17 0.17 96 1014.3
20260509065116 68 105 1.7 3.5 0.28 0.12 0.12 96 1013.9
20260509064614 68 80 1.7 3.5 0.24 0.09 0.09 96 1014.5
20260509064112 68 97 0.9 1.7 0.33 0.07 0.07 96 1013.9
20260509063608 68 114 0.9 1.7 0.21 0.06 0.06 96 1014.1
20260509063105 68 165 2.6 5.2 0.12 0.02 0.02 96 1014.3
20260509062602 68 109 0.0 5.2 0.12 0.02 0.02 96 1013.4
20260509062059 68 99 0.9 1.7 0.00 0.00 0.00 96 1014.1
20260509061556 68 105 0.0 1.7 0.00 0.00 0.00 96 1013.8
20260509061053 68 104 0.9 3.5 0.00 0.00 0.00 96 1014.1
20260509060551 68 113 0.0 1.7 0.00 0.00 0.00 95 1014.0
20260509060046 68 109 0.9 1.7 0.00 0.00 0.00 95 1014.7
20260509055542 68 128 4.3 5.2 0.00 0.00 0.00 94 1015.3
20260509055038 68 96 1.7 1.7 0.00 0.00 0.00 94 1015.5
20260509054535 68 107 0.0 1.7 0.00 0.00 0.00 94 1015.5
20260509054033 68 104 0.0 0.0 0.00 0.00 0.00 94 1015.4
20260509053531 68 112 0.0 3.5 0.00 0.00 0.00 94 1015.2
20260509053028 68 115 0.9 1.7 0.00 0.00 0.00 94 1015.5
20260509052525 68 95 0.9 1.7 0.00 0.00 0.00 94 1015.1
20260509052023 68 104 0.0 5.2 0.00 0.00 0.00 94 1014.1
20260509051521 68 105 0.0 5.2 0.00 0.00 0.00 94 1013.8
20260509051018 68 160 0.9 5.2 0.00 0.00 0.00 94 1013.9
20260509050515 68 125 1.7 3.5 0.00 0.00 0.00 94 1013.9
20260509050011 68 119 1.7 3.5 0.00 0.05 0.05 94 1013.8
20260509045508 68 107 1.7 1.7 0.00 0.05 0.05 94 1013.8
20260509045005 68 113 1.7 3.5 0.00 0.05 0.05 93 1013.8
20260509044504 68 109 1.7 3.5 0.00 0.05 0.05 93 1014.2
20260509044000 68 118 0.0 3.5 0.00 0.05 0.05 93 1014.2
20260509043456 68 119 2.6 7.8 0.00 0.05 0.05 93 1014.4
20260509042951 68 106 0.0 1.7 0.00 0.05 0.05 93 1014.6
20260509042449 68 137 1.7 3.5 0.00 0.05 0.05 92 1014.4
20260509041944 68 135 0.9 9.6 0.00 0.05 0.05 92 1014.7
20260509041442 68 128 1.7 6.1 0.00 0.05 0.05 92 1015.1
20260509040940 68 112 0.9 5.2 0.00 0.05 0.05 92 1015.1
20260509040438 69 133 1.7 6.1 0.00 0.05 0.05 92 1015.0
20260509035934 69 107 0.0 3.5 0.00 0.05 0.05 91 1015.1
20260509035431 69 124 1.7 5.2 0.00 0.05 0.05 91 1015.1
20260509034927 69 104 1.7 1.7 0.00 0.05 0.05 91 1015.1
20260509034425 69 139 3.5 6.1 0.00 0.05 0.05 91 1014.8
20260509033922 69 147 0.9 3.5 0.00 0.05 0.05 90 1014.7
20260509033419 69 124 0.9 1.7 0.00 0.05 0.05 90 1014.7
20260509032915 69 112 1.7 6.1 0.00 0.05 0.05 89 1014.7
20260509032413 69 116 1.7 1.7 0.00 0.05 0.05 89 1014.7
20260509031911 69 124 1.7 3.5 0.00 0.05 0.05 88 1014.9
20260509031408 69 112 0.9 3.5 0.00 0.05 0.05 88 1014.5
20260509030905 69 90 0.9 1.7 0.00 0.05 0.05 87 1014.6
20260509030404 69 114 0.9 1.7 0.00 0.05 0.05 87 1014.3
20260509025900 69 139 1.7 3.5 0.00 0.05 0.05 87 1014.0
20260509025355 69 108 0.0 1.7 0.00 0.05 0.05 86 1013.7
20260509024851 69 114 0.0 3.5 0.00 0.05 0.05 85 1014.0
20260509024347 69 103 0.0 3.5 0.00 0.05 0.05 85 1013.8
20260509023845 69 104 0.0 1.7 0.00 0.05 0.05 85 1013.6
20260509023342 69 120 1.7 3.5 0.00 0.05 0.05 84 1013.2
20260509022838 69 105 1.7 1.7 0.00 0.05 0.05 83 1013.5
20260509022336 70 110 0.0 1.7 0.00 0.05 0.05 83 1013.2
20260509021832 69 112 0.0 1.7 0.00 0.05 0.05 83 1013.4
20260509021329 69 108 0.0 1.7 0.00 0.05 0.05 82 1013.1
20260509020827 69 107 0.0 1.7 0.00 0.05 0.05 82 1013.0